CAPE
0 0 0 0 0 0 0 0 0 0 0 9 0 1 34 0 0 0 0 5 0 0 0 1 2 6 172 222 529 1129 1136 2533 2434 1859 1259 810 483 612 467 533 658 736 864 1364
0 0 0 0 0 0 0 0 0 0 0 18 12 16 9 2 3 0 0 0 0 0 0 0 0 382 300 475 728 808 963 1891 2170 1478 1326 723 718 432 453 492 730 823 878 1110
0 0 0 0 0 0 0 0 0 0 0 13 6 0 0 0 0 0 0 0 0 0 0 0 0 515 444 567 700 822 1045 1671 1749 1611 1188 654 550 506 613 346 529 923 872 1080
0 0 0 0 0 0 0 0 0 0 0 0 0 0 0 0 0 0 0 0 0 0 0 0 5 583 562 597 686 804 1161 1175 914 1429 1248 1488 688 371 279 570 356 734 755 660
0 0 0 0 0 0 0 0 0 0 0 0 0 0 0 0 0 0 0 0 0 0 0 0 249 563 579 563 680 904 997 835 1035 878 1301 603 563 224 333 222 610 1024 875 798
0 0 0 0 0 0 0 0 0 2 0 0 0 0 0 0 0 0 0 0 0 0 0 61 536 565 517 501 675 797 829 806 782 556 591 753 613 483 400 623 801 1010 1283 1001
0 0 0 0 0 0 0 0 0 0 0 0 0 0 0 0 0 0 0 0 0 24 139 393 528 429 450 564 644 710 722 804 618 539 508 554 712 827 869 740 1024 860 789 1140
0 0 0 0 0 0 0 0 0 0 0 0 0 0 0 0 0 0 0 0 32 216 356 459 430 466 487 517 570 516 627 560 447 409 389 594 837 819 945 919 647 1327 680 1029
11 0 0 0 0 0 0 0 0 0 1 0 3 4 0 0 0 0 0 0 91 371 493 489 479 485 484 512 510 594 538 428 369 249 552 634 852 620 885 697 517 876 749 521
47 0 0 3 0 0 1 0 1 0 0 5 11 32 60 0 0 0 11 0 137 554 534 512 506 506 488 482 547 551 428 362 183 409 504 599 758 739 650 559 411 940 395 233
20 112 47 4 28 0 0 1 0 0 0 10 20 36 13 11 0 1 46 113 468 604 505 524 459 456 482 482 500 536 338 153 218 393 392 1111 818 722 568 459 224 577 414 270
152 118 140 66 22 1 0 3 0 0 0 0 49 49 0 0 9 6 90 401 622 549 422 425 413 445 472 519 530 427 156 60 205 272 373 465 740 728 659 821 671 317 395 150
136 136 120 132 96 12 15 6 3 0 12 15 38 53 0 2 76 98 234 418 508 413 366 388 406 430 475 545 459 146 47 22 106 238 298 965 712 805 664 851 838 230 98 83
37 97 74 78 141 24 24 19 13 4 21 29 9 17 0 12 45 115 332 477 386 366 360 395 384 406 485 436 210 32 8 18 94 176 215 614 793 752 585 836 729 149 110 146
47 76 4 7 20 48 54 32 24 12 17 44 10 3 1 82 34 151 333 326 391 390 334 382 356 401 440 289 102 6 8 6 47 79 382 1042 719 771 475 754 687 690 277 588
50 138 27 0 40 31 67 11 29 40 26 7 23 0 2 35 0 0 11 210 403 399 343 386 350 399 381 187 32 0 15 22 33 122 552 699 448 311 628 557 674 770 744 698
2 162 94 0 0 22 75 52 25 12 35 7 2 0 0 3 0 10 16 41 283 426 400 422 407 449 391 136 13 0 5 14 43 188 497 394 343 220 301 304 314 489 927 977
0 42 22 27 5 87 46 36 17 23 21 13 2 0 2 6 0 0 0 43 46 396 461 492 466 542 429 93 4 0 6 0 41 254 417 386 345 370 314 298 357 609 1189 687
0 9 0 24 62 204 55 87 36 55 44 43 9 9 20 0 0 0 24 49 263 472 583 625 576 627 461 46 1 0 8 0 31 225 448 390 420 538 795 710 788 1221 1117 1243
0 20 0 0 177 100 41 37 7 78 129 1 0 0 0 0 0 117 16 13 126 640 656 726 657 663 476 55 0 0 8 0 20 131 419 419 431 516 796 977 951 1030 1143 1012
49 47 61 40 214 172 16 7 13 23 15 0 0 0 0 0 4 0 0 3 29 299 675 800 760 757 556 65 0 0 5 0 1 52 392 498 631 642 933 801 1130 1212 965 1175
16 55 145 146 189 100 0 14 87 12 11 0 5 1 0 0 0 0 4 6 56 160 624 813 846 851 619 75 4 0 0 0 0 14 284 573 670 648 830 838 783 994 1301 1119
125 0 21 13 24 8 0 0 0 1 13 0 1 0 0 0 0 7 71 117 202 173 485 713 899 932 690 119 13 0 0 0 0 1 222 542 638 573 894 735 683 749 972 768
0 0 0 5 0 0 0 0 0 0 0 9 0 0 0 0 0 59 185 280 324 441 320 647 857 959 793 209 19 0 0 0 0 0 150 486 634 610 688 534 251 352 376 379
0 0 0 0 1 0 0 0 0 0 0 0 0 0 0 0 1 5 161 529 613 559 464 562 783 990 883 341 52 0 0 0 4 35 55 214 578 589 599 462 79 30 360 105
0 0 0 0 0 0 0 0 0 0 0 0 0 0 1 0 0 0 17 284 754 810 679 440 756 989 939 480 121 0 0 0 18 225 69 67 184 551 490 368 330 19 6 0
CIN
-0 -0 -0 -0 -0 -0 -0 -0 -0 -0 -0 -1 -0 -0 -0 -0 -0 -0 -0 -0 -0 -0 -0 -20 -70 -107 -163 -187 -196 -256 -294 -106 -87 -116 -157 -165 -199 -138 -135 -105 -60 -29 -1 -1
-0 -0 -0 -0 -0 -0 -0 -0 -0 -0 -0 -0 -0 -0 -0 -0 -0 -0 -0 -0 -0 -0 -0 -0 -0 -88 -234 -294 -341 -390 -338 -164 -102 -139 -106 -144 -96 -122 -97 -59 -23 -10 -1 -0
-0 -0 -0 -0 -0 -0 -0 -0 -0 -0 -0 -0 -0 -0 -0 -0 -0 -0 -0 -0 -0 -0 -0 -0 -0 -127 -243 -339 -391 -382 -305 -184 -118 -94 -89 -128 -112 -70 -54 -69 -10 -0 -0 -1
-0 -0 -0 -0 -0 -0 -0 -0 -0 -0 -0 -0 -0 -0 -0 -0 -0 -0 -0 -0 -0 -0 -0 -0 -18 -162 -261 -319 -376 -349 -248 -219 -204 -68 -48 -4 -58 -71 -59 -8 -0 -1 -0 -0
-0 -0 -0 -0 -0 -0 -0 -0 -0 -0 -0 -0 -0 -0 -0 -0 -0 -0 -0 -0 -0 -0 -0 -0 -26 -159 -251 -344 -347 -292 -255 -227 -135 -113 -15 -100 -47 -75 -39 -21 -1 -2 -0 -0
-0 -0 -0 -0 -0 -0 -0 -0 -0 -0 -0 -0 -0 -0 -0 -0 -0 -0 -0 -0 -0 -0 -0 -34 -83 -217 -297 -315 -308 -283 -232 -171 -139 -138 -103 -43 -51 -27 -9 -0 -0 -1 -0 -0
-0 -0 -0 -0 -0 -0 -0 -0 -0 -0 -0 -0 -0 -0 -0 -0 -0 -0 -0 -0 -0 -37 -50 -60 -159 -215 -281 -300 -291 -243 -181 -134 -131 -116 -96 -54 -16 -1 -0 -0 -2 -0 -0 -0
-0 -0 -0 -0 -0 -0 -0 -0 -0 -0 -0 -0 -0 -0 -0 -0 -0 -0 -0 -0 -41 -40 -64 -113 -180 -248 -246 -272 -256 -205 -153 -137 -130 -105 -82 -25 -1 -0 -1 -2 -0 -6 -0 -0
-0 -0 -0 -0 -0 -0 -0 -0 -0 -0 -0 -0 -0 -0 -0 -0 -0 -0 -0 -0 -37 -47 -93 -131 -180 -208 -221 -240 -204 -153 -126 -127 -113 -123 -33 -9 -0 -0 -0 -1 -2 -1 -0 -0
-28 -0 -0 -0 -0 -0 -0 -0 -0 -0 -0 -0 -0 -0 -6 -0 -0 -0 -37 -0 -36 -62 -84 -125 -163 -186 -200 -186 -151 -119 -122 -118 -150 -53 -20 -3 -0 -0 -0 -0 -0 -2 -0 -0
-0 -0 -0 -0 -0 -0 -0 -0 -0 -0 -0 -0 -0 -0 -3 -1 -0 -26 -3 -6 -35 -72 -83 -133 -135 -162 -148 -141 -120 -103 -120 -160 -113 -37 -18 -1 -0 -0 -0 -0 -0 -0 -0 -2
-0 -0 -0 -0 -0 -0 -0 -0 -0 -0 -0 -0 -0 -1 -0 -0 -20 -18 -0 -8 -42 -75 -95 -91 -120 -130 -122 -107 -104 -113 -161 -194 -93 -47 -19 -0 -0 -0 -0 -0 -0 -0 -0 -7
-0 -0 -0 -1 -0 -0 -0 -0 -0 -0 -0 -0 -0 -0 -0 -11 -38 -29 -2 -26 -54 -71 -78 -83 -106 -110 -107 -92 -90 -171 -225 -225 -138 -51 -19 -1 -0 -0 -0 -0 -1 -0 -14 -24
-0 -1 -7 -2 -24 -0 -0 -0 -0 -0 -0 -0 -0 -1 -0 -15 -16 -13 -15 -42 -61 -73 -72 -75 -87 -89 -85 -101 -123 -248 -278 -240 -137 -60 -28 -1 -0 -0 -0 -0 -0 -0 -8 -12
-0 -2 -25 -75 -13 -85 -0 -0 -0 -0 -0 -0 -0 -0 -1 -1 -0 -22 -36 -40 -44 -38 -50 -74 -71 -75 -81 -113 -166 -307 -269 -268 -170 -106 -5 -2 -0 -1 -0 -1 -1 -2 -2 -1
-0 -0 -2 -0 -10 -43 -1 -4 -1 -0 -0 -0 -0 -0 -1 -0 -0 -0 -25 -32 -28 -29 -44 -53 -55 -57 -76 -122 -218 -0 -274 -258 -211 -97 -3 -0 -0 -0 -0 -0 -0 -1 -1 -0
-0 -1 -2 -0 -0 -25 -1 -0 -0 -0 -0 -0 -0 -0 -0 -2 -0 -15 -14 -51 -19 -14 -23 -47 -57 -62 -82 -143 -260 -0 -327 -297 -230 -75 -1 -0 -1 -0 -0 -0 -0 -0 -3 -2
-0 -0 -5 -14 -30 -0 -1 -1 -1 -0 -0 -0 -0 -0 -9 -13 -5 -0 -0 -65 -30 -6 -20 -40 -52 -66 -93 -161 -281 -0 -340 -80 -251 -52 -4 -5 -0 -0 -1 -0 -0 -0 -0 -0
-0 -0 -2 -4 -17 -3 -3 -1 -3 -2 -4 -42 -16 -3 -13 -0 -0 -0 -191 -218 -99 -8 -14 -35 -52 -71 -97 -176 -277 -0 -330 -0 -261 -68 -7 -0 -0 -0 -0 -0 -1 -1 -1 -0
-0 -0 -0 -0 -0 -4 -10 -42 -16 -36 -0 -76 -0 -0 -0 -0 -0 -74 -279 -267 -174 -80 -13 -39 -74 -92 -115 -195 -0 -0 -322 -0 -266 -115 -21 -13 -9 -0 -3 -0 -0 -0 -0 -0
-37 -48 -15 -0 -0 -4 -15 -51 -108 -3 -1 -0 -0 -0 -0 -35 -69 -0 -0 -212 -252 -143 -26 -43 -65 -99 -128 -198 -25 -0 -305 -0 -151 -184 -39 -22 -7 -3 -0 -0 -0 -0 -0 -0
-0 -31 -2 -0 -0 -3 -0 -12 -9 -10 -0 -0 -0 -0 -0 -0 -0 -0 -328 -274 -233 -182 -70 -47 -63 -94 -142 -196 -69 -0 -0 -0 -0 -231 -80 -19 -8 -2 -0 -0 -0 -0 -0 -0
-0 -0 -2 -0 -5 -7 -0 -0 -0 -0 -0 -0 -0 -0 -0 -0 -0 -298 -236 -227 -196 -199 -129 -53 -58 -93 -150 -184 -266 -0 -0 -0 -0 -15 -121 -36 -13 -17 -0 -0 -0 -0 -0 -0
-0 -0 -0 -0 -0 -0 -0 -0 -0 -0 -0 -0 -0 -0 -0 -0 -0 -227 -200 -190 -187 -146 -158 -75 -63 -95 -154 -191 -237 -0 -0 -0 -0 -0 -185 -83 -35 -22 -5 -8 -43 -18 -4 -1
-0 -0 -0 -0 -0 -0 -0 -0 -0 -0 -0 -0 -0 -0 -0 -0 -0 -155 -204 -146 -163 -164 -130 -118 -78 -84 -133 -177 -207 -0 -0 -0 -115 -247 -230 -193 -78 -52 -39 -39 -138 -139 -49 -92
-0 -0 -0 -0 -0 -0 -0 -0 -0 -0 -0 -0 -0 -0 -0 -0 -0 -0 -319 -242 -177 -172 -157 -143 -104 -89 -101 -152 -179 -0 -0 -0 -219 -188 -276 -235 -189 -98 -80 -95 -99 -229 -164 -0
Wind_Speed
nan nan nan nan nan nan nan nan nan nan nan nan nan nan nan nan nan nan nan nan nan nan nan nan nan nan 28 24 27 31 33 33 37 35 35 38 42 42 44 44 39 36 34 34
nan nan nan nan nan nan nan nan nan nan nan nan nan nan nan nan nan nan nan nan nan nan nan nan nan 34 30 28 29 31 35 39 37 37 37 41 42 43 41 41 38 36 35 32
nan nan nan nan nan nan nan nan nan nan nan nan nan nan nan nan nan nan nan nan nan nan nan nan nan 29 30 27 27 32 37 41 37 38 39 41 42 39 37 37 37 39 36 32
nan nan nan nan nan nan nan nan nan nan nan nan nan nan nan nan nan nan nan nan nan nan nan nan nan 29 30 27 30 34 38 40 37 40 40 38 35 32 34 33 34 32 30 26
nan nan nan nan nan nan nan nan nan nan nan nan nan nan nan nan nan nan nan nan nan nan nan nan 30 30 28 31 33 38 43 42 41 36 35 34 26 30 29 29 28 28 24 19
nan nan nan nan nan nan nan nan nan nan nan nan nan nan nan nan nan nan nan nan nan nan nan nan 30 31 31 31 36 41 45 44 39 34 33 24 27 24 21 25 24 22 20 14
nan nan nan nan nan nan nan nan nan nan nan nan nan nan nan nan nan nan nan nan nan nan 23 23 26 27 28 33 39 43 43 38 34 29 27 24 25 20 22 21 21 18 15 13
nan nan nan nan nan nan nan nan nan nan nan nan nan nan nan nan nan nan nan nan nan 14 21 20 23 26 31 36 41 40 34 34 27 27 23 23 20 21 21 18 7 14 13 10
nan nan nan nan nan nan nan nan nan nan nan nan nan nan nan nan nan nan nan nan nan 14 18 21 24 27 34 36 37 33 31 27 25 22 18 20 18 17 15 12 9 11 12 8
nan nan nan nan nan nan nan nan nan nan nan nan nan nan nan nan nan nan nan nan 16 15 16 19 23 31 34 33 31 28 26 24 22 19 21 21 18 15 13 8 5 5 6 3
nan 39 nan nan nan nan nan nan nan nan nan nan nan nan nan nan nan nan nan 15 15 15 15 21 29 33 34 28 27 25 21 22 19 20 21 18 18 11 10 6 5 7 4 6
28 48 32 nan nan nan nan nan nan nan nan nan nan nan nan nan nan nan nan 18 14 12 18 25 31 32 29 25 24 18 20 nan 18 20 16 15 15 7 6 4 3 6 5 5
44 40 41 48 nan nan nan nan nan nan nan nan nan nan nan nan nan nan 26 15 14 17 23 28 30 30 24 22 17 18 nan nan 18 18 13 15 9 5 4 4 4 6 nan nan
nan nan nan nan 40 nan nan nan nan nan nan nan nan nan nan nan nan 21 24 17 16 17 23 26 26 25 22 19 16 nan nan nan nan 14 12 13 7 5 6 4 2 3 4 2
nan nan nan nan nan nan nan nan nan nan nan nan nan nan nan nan nan 31 25 16 16 19 21 24 22 21 18 15 15 nan nan nan nan nan 13 16 11 7 8 4 2 2 5 10
nan 41 nan nan nan nan nan nan nan nan nan nan nan nan nan nan nan nan nan 17 14 16 17 21 19 19 15 14 nan nan nan nan nan 12 15 15 10 8 8 7 4 1 3 5
nan 41 nan nan nan nan nan nan nan nan nan nan nan nan nan nan nan nan nan nan 13 14 14 15 14 12 12 13 nan nan nan nan nan 13 17 16 8 9 6 8 6 1 1 2
nan nan nan nan nan nan nan nan nan nan nan nan nan nan nan nan nan nan nan nan nan 11 11 11 9 7 9 nan nan nan nan nan nan 14 15 17 11 10 5 7 3 2 2 4
nan nan nan nan nan 35 nan nan nan nan nan nan nan nan nan nan nan nan nan nan 33 28 11 8 10 8 7 nan nan nan nan nan nan 15 16 17 11 10 7 4 6 1 4 3
nan nan nan nan 35 26 nan nan nan nan 55 nan nan nan nan nan nan 48 nan nan 38 29 14 8 12 11 7 nan nan nan nan nan nan 14 14 15 14 15 11 7 8 7 9 4
nan nan nan nan 25 28 nan nan nan nan nan nan nan nan nan nan nan nan nan nan nan 28 14 10 12 11 7 nan nan nan nan nan nan nan 12 10 10 12 10 12 8 5 7 6
nan nan 28 29 37 25 nan nan nan nan nan nan nan nan nan nan nan nan nan nan nan 25 15 7 12 11 8 nan nan nan nan nan nan nan 11 9 9 12 9 9 12 12 7 4
17 nan nan nan nan nan nan nan nan nan nan nan nan nan nan nan nan nan nan 37 30 23 17 7 8 11 10 8 nan nan nan nan nan nan 10 9 8 10 5 8 9 9 14 13
nan nan nan nan nan nan nan nan nan nan nan nan nan nan nan nan nan nan 47 41 32 25 16 9 4 10 12 8 nan nan nan nan nan nan 8 9 9 9 8 8 9 8 12 13
nan nan nan nan nan nan nan nan nan nan nan nan nan nan nan nan nan nan 50 45 36 29 20 11 6 7 12 10 nan nan nan nan nan nan nan 7 8 9 8 14 nan nan 15 19
nan nan nan nan nan nan nan nan nan nan nan nan nan nan nan nan nan nan nan 47 42 32 24 14 10 5 13 13 9 nan nan nan nan 7 nan nan 4 5 6 10 8 nan nan nan
Wind_Direction
nan nan nan nan nan nan nan nan nan nan nan nan nan nan nan nan nan nan nan nan nan nan nan nan nan nan 267 283 304 306 306 307 304 304 306 306 308 308 309 310 314 311 313 307
nan nan nan nan nan nan nan nan nan nan nan nan nan nan nan nan nan nan nan nan nan nan nan nan nan 275 272 292 301 303 303 307 308 300 300 299 300 303 306 309 310 311 310 307
nan nan nan nan nan nan nan nan nan nan nan nan nan nan nan nan nan nan nan nan nan nan nan nan nan 272 275 291 299 300 305 308 304 299 295 293 296 295 304 309 311 317 311 305
nan nan nan nan nan nan nan nan nan nan nan nan nan nan nan nan nan nan nan nan nan nan nan nan nan 270 284 291 293 298 300 305 300 299 298 301 301 309 307 302 302 301 316 316
nan nan nan nan nan nan nan nan nan nan nan nan nan nan nan nan nan nan nan nan nan nan nan nan 270 275 286 289 294 296 301 303 296 304 300 300 312 309 307 310 308 317 315 313
nan nan nan nan nan nan nan nan nan nan nan nan nan nan nan nan nan nan nan nan nan nan nan nan 262 282 287 288 291 297 304 301 299 302 298 316 303 304 310 315 312 315 322 331
nan nan nan nan nan nan nan nan nan nan nan nan nan nan nan nan nan nan nan nan nan nan 244 254 278 287 290 292 295 300 302 300 303 301 310 309 309 314 320 323 328 330 337 346
nan nan nan nan nan nan nan nan nan nan nan nan nan nan nan nan nan nan nan nan nan 233 250 267 283 284 294 296 304 301 300 305 306 313 312 310 312 325 323 331 316 310 341 355
nan nan nan nan nan nan nan nan nan nan nan nan nan nan nan nan nan nan nan nan nan 261 267 278 282 292 295 298 303 300 304 305 315 316 315 316 317 308 308 307 353 328 355 355
nan nan nan nan nan nan nan nan nan nan nan nan nan nan nan nan nan nan nan nan 265 268 279 281 287 292 298 303 296 301 307 311 318 320 319 322 314 321 322 323 346 322 5 4
nan 201 nan nan nan nan nan nan nan nan nan nan nan nan nan nan nan nan nan 278 276 287 286 285 289 299 304 299 302 307 308 318 315 320 328 313 315 335 324 331 12 343 10 30
193 200 169 nan nan nan nan nan nan nan nan nan nan nan nan nan nan nan nan 251 287 296 291 295 302 307 302 305 307 309 315 nan 316 331 329 327 314 339 317 1 31 353 24 44
207 188 166 183 nan nan nan nan nan nan nan nan nan nan nan nan nan nan 246 266 281 289 293 296 306 310 302 303 313 314 nan nan 323 339 336 310 321 337 342 1 26 33 nan nan
nan nan nan nan 184 nan nan nan nan nan nan nan nan nan nan nan nan 225 239 254 272 285 293 300 308 305 306 309 317 nan nan nan nan 339 343 307 344 318 3 325 15 93 57 84
nan nan nan nan nan nan nan nan nan nan nan nan nan nan nan nan nan 224 235 244 265 285 298 302 310 305 303 318 317 nan nan nan nan nan 324 313 337 336 330 353 355 50 168 157
nan 172 nan nan nan nan nan nan nan nan nan nan nan nan nan nan nan nan nan 242 259 280 308 310 318 311 315 326 nan nan nan nan nan 355 323 343 327 331 316 336 344 120 149 177
nan 170 nan nan nan nan nan nan nan nan nan nan nan nan nan nan nan nan nan nan 244 279 296 319 323 314 324 332 nan nan nan nan nan 358 337 342 350 356 9 353 8 48 227 111
nan nan nan nan nan nan nan nan nan nan nan nan nan nan nan nan nan nan nan nan nan 236 285 312 308 299 320 nan nan nan nan nan nan 5 353 352 3 5 13 37 76 104 158 174
nan nan nan nan nan 208 nan nan nan nan nan nan nan nan nan nan nan nan nan nan 204 181 256 296 304 288 312 nan nan nan nan nan nan 7 8 4 11 24 2 37 50 28 304 318
nan nan nan nan 141 164 nan nan nan nan 216 nan nan nan nan nan nan 218 nan nan 201 199 254 281 303 289 306 nan nan nan nan nan nan 11 23 26 37 40 22 5 42 57 66 67
nan nan nan nan 151 203 nan nan nan nan nan nan nan nan nan nan nan nan nan nan nan 186 214 268 288 292 300 nan nan nan nan nan nan nan 30 30 38 40 25 44 36 49 68 42
nan nan 191 197 193 221 nan nan nan nan nan nan nan nan nan nan nan nan nan nan nan 192 172 260 275 293 315 nan nan nan nan nan nan nan 23 18 27 52 35 40 54 43 59 86
171 nan nan nan nan nan nan nan nan nan nan nan nan nan nan nan nan nan nan 202 198 198 176 222 265 297 323 320 nan nan nan nan nan nan 19 14 13 38 27 52 55 58 59 58
nan nan nan nan nan nan nan nan nan nan nan nan nan nan nan nan nan nan 196 203 201 200 195 184 252 310 324 333 nan nan nan nan nan nan 19 20 29 39 45 66 75 70 80 78
nan nan nan nan nan nan nan nan nan nan nan nan nan nan nan nan nan nan 198 204 205 198 200 186 208 286 310 327 nan nan nan nan nan nan nan 26 43 59 54 82 nan nan 91 105
nan nan nan nan nan nan nan nan nan nan nan nan nan nan nan nan nan nan nan 200 201 197 197 208 200 266 304 320 332 nan nan nan nan 315 nan nan 73 76 93 90 101 nan nan nan